Time,TemperatureF,DewpointF,PressureIn,WindDirection,WindDirectionDegrees,WindSpeedMPH,WindSpeedGustMPH,Humidity,HourlyPrecipIn,Conditions,Clouds,dailyrainin,SoftwareType,DateUTC
2013-03-08 00:02:00,30.0,27.2,29.84,SSE,162,0.0,0.0,89,0.00,,,0.00,Wunderground v.1.15,2013-03-08 08:02:00,
2013-03-08 00:07:00,30.1,27.3,29.84,SSE,162,0.0,0.0,89,0.00,,,0.00,Wunderground v.1.15,2013-03-08 08:07:00,
2013-03-08 00:13:00,30.1,27.3,29.84,SSE,161,0.0,0.0,89,0.00,,,0.00,Wunderground v.1.15,2013-03-08 08:13:00,
2013-03-08 00:18:00,30.3,27.4,29.85,SSE,161,0.0,0.0,89,0.00,,,0.00,Wunderground v.1.15,2013-03-08 08:18:00,
2013-03-08 00:24:00,30.1,27.3,29.85,SSE,162,0.0,1.0,89,0.00,,,0.00,Wunderground v.1.15,2013-03-08 08:24:00,
2013-03-08 00:29:00,30.1,27.3,29.85,SSE,162,0.0,3.0,89,0.00,,,0.00,Wunderground v.1.15,2013-03-08 08:29:00,
2013-03-08 00:35:00,30.1,27.3,29.85,SSE,161,0.0,0.0,89,0.00,,,0.00,Wunderground v.1.15,2013-03-08 08:35:00,
2013-03-08 00:40:00,30.1,27.3,29.85,SSE,161,0.0,0.0,89,0.00,,,0.00,Wunderground v.1.15,2013-03-08 08:40:00,
2013-03-08 00:46:00,30.0,27.4,29.84,SSE,162,0.0,0.0,90,0.00,,,0.00,Wunderground v.1.15,2013-03-08 08:46:00,
2013-03-08 00:51:00,29.8,27.2,29.84,SSE,161,0.0,0.0,90,0.00,,,0.00,Wunderground v.1.15,2013-03-08 08:51:00,
2013-03-08 00:57:00,29.8,27.5,29.84,SSE,161,0.0,0.0,91,0.00,,,0.00,Wunderground v.1.15,2013-03-08 08:57:00,
2013-03-08 01:02:00,30.0,27.7,29.83,SSE,161,0.0,3.0,91,0.00,,,0.00,Wunderground v.1.15,2013-03-08 09:02:00,
2013-03-08 01:08:00,30.0,28.0,29.83,SSE,161,0.0,3.0,92,0.00,,,0.00,Wunderground v.1.15,2013-03-08 09:08:00,
2013-03-08 01:13:00,30.0,28.0,29.83,SSE,162,0.0,0.0,92,0.00,,,0.00,Wunderground v.1.15,2013-03-08 09:13:00,
2013-03-08 01:19:00,30.0,28.2,29.82,SSE,161,0.0,0.0,93,0.00,,,0.00,Wunderground v.1.15,2013-03-08 09:19:00,
2013-03-08 01:25:00,30.1,28.3,29.82,SSE,161,0.0,0.0,93,0.00,,,0.00,Wunderground v.1.15,2013-03-08 09:25:00,
2013-03-08 01:31:00,30.1,28.3,29.81,SSE,161,0.0,0.0,93,0.00,,,0.00,Wunderground v.1.15,2013-03-08 09:31:00,
2013-03-08 01:37:00,30.3,28.5,29.81,SSE,161,0.0,0.0,93,0.00,,,0.00,Wunderground v.1.15,2013-03-08 09:37:00,
2013-03-08 01:42:00,30.3,28.5,29.81,SSE,161,0.0,0.0,93,0.00,,,0.00,Wunderground v.1.15,2013-03-08 09:42:00,
2013-03-08 01:48:00,30.4,28.6,29.80,SSE,161,0.0,0.0,93,0.00,,,0.00,Wunderground v.1.15,2013-03-08 09:48:00,
2013-03-08 01:54:00,30.4,28.9,29.80,SSE,162,0.0,0.0,94,0.00,,,0.00,Wunderground v.1.15,2013-03-08 09:54:00,
2013-03-08 02:00:00,30.4,28.9,29.79,SSE,161,0.0,0.0,94,0.00,,,0.00,Wunderground v.1.15,2013-03-08 10:00:00,
2013-03-08 02:05:00,30.4,28.9,29.79,SSE,162,0.0,3.0,94,0.00,,,0.00,Wunderground v.1.15,2013-03-08 10:05:00,
2013-03-08 02:10:00,30.3,28.8,29.79,SSE,161,0.0,0.0,94,0.00,,,0.00,Wunderground v.1.15,2013-03-08 10:10:00,
2013-03-08 02:15:00,30.3,28.8,29.77,SSE,161,0.0,0.0,94,0.00,,,0.00,Wunderground v.1.15,2013-03-08 10:15:00,
2013-03-08 02:21:00,30.3,28.8,29.77,SSE,162,0.0,0.0,94,0.00,,,0.00,Wunderground v.1.15,2013-03-08 10:21:00,
2013-03-08 02:27:00,30.1,28.8,29.77,SSE,162,0.0,0.0,95,0.00,,,0.00,Wunderground v.1.15,2013-03-08 10:27:00,
2013-03-08 02:32:00,30.1,28.8,29.77,SSE,162,0.0,0.0,95,0.00,,,0.00,Wunderground v.1.15,2013-03-08 10:32:00,
2013-03-08 02:37:00,30.1,28.8,29.77,SSE,162,0.0,0.0,95,0.00,,,0.00,Wunderground v.1.15,2013-03-08 10:37:00,
2013-03-08 02:43:00,30.1,28.8,29.77,SSE,162,0.0,0.0,95,0.00,,,0.00,Wunderground v.1.15,2013-03-08 10:43:00,
2013-03-08 02:49:00,30.1,28.8,29.76,SSE,161,0.0,0.0,95,0.00,,,0.00,Wunderground v.1.15,2013-03-08 10:49:00,
2013-03-08 02:55:00,30.3,29.0,29.76,SSE,161,0.0,0.0,95,0.00,,,0.00,Wunderground v.1.15,2013-03-08 10:55:00,
2013-03-08 03:01:00,30.1,28.8,29.76,SSE,162,0.0,0.0,95,0.00,,,0.00,Wunderground v.1.15,2013-03-08 11:01:00,
2013-03-08 03:06:00,30.3,29.3,29.76,SSE,162,0.0,0.0,96,0.00,,,0.00,Wunderground v.1.15,2013-03-08 11:06:00,
2013-03-08 03:11:00,30.3,29.3,29.76,SSE,161,0.0,0.0,96,0.00,,,0.00,Wunderground v.1.15,2013-03-08 11:11:00,
2013-03-08 03:17:00,30.3,29.3,29.75,SSE,161,0.0,0.0,96,0.00,,,0.00,Wunderground v.1.15,2013-03-08 11:17:00,
2013-03-08 03:22:00,30.3,29.3,29.75,SSE,161,0.0,0.0,96,0.00,,,0.00,Wunderground v.1.15,2013-03-08 11:22:00,
2013-03-08 03:27:00,30.3,29.3,29.75,SSE,161,0.0,0.0,96,0.00,,,0.00,Wunderground v.1.15,2013-03-08 11:27:00,
2013-03-08 03:33:00,30.3,29.3,29.75,SSE,161,0.0,0.0,96,0.00,,,0.00,Wunderground v.1.15,2013-03-08 11:33:00,
2013-03-08 03:39:00,30.1,29.1,29.75,SSE,161,0.0,0.0,96,0.00,,,0.00,Wunderground v.1.15,2013-03-08 11:39:00,
2013-03-08 03:45:00,30.1,29.1,29.74,SSE,162,0.0,0.0,96,0.00,,,0.00,Wunderground v.1.15,2013-03-08 11:45:00,
2013-03-08 03:51:00,30.1,29.1,29.74,SSE,162,0.0,0.0,96,0.00,,,0.00,Wunderground v.1.15,2013-03-08 11:51:00,
2013-03-08 03:56:00,30.1,29.1,29.74,SSE,162,0.0,0.0,96,0.00,,,0.00,Wunderground v.1.15,2013-03-08 11:56:00,
2013-03-08 04:02:00,30.1,29.1,29.74,SSE,162,0.0,0.0,96,0.00,,,0.00,Wunderground v.1.15,2013-03-08 12:02:00,
2013-03-08 04:08:00,30.0,29.0,29.74,SSE,161,0.0,0.0,96,0.00,,,0.00,Wunderground v.1.15,2013-03-08 12:08:00,
2013-03-08 04:13:00,30.0,29.0,29.74,SSE,161,0.0,0.0,96,0.00,,,0.00,Wunderground v.1.15,2013-03-08 12:13:00,
2013-03-08 04:19:00,29.8,28.8,29.74,SSE,161,0.0,0.0,96,0.00,,,0.00,Wunderground v.1.15,2013-03-08 12:19:00,
2013-03-08 04:25:00,29.7,28.7,29.74,SSE,161,0.0,0.0,96,0.00,,,0.00,Wunderground v.1.15,2013-03-08 12:25:00,
2013-03-08 04:30:00,29.5,28.5,29.74,SSE,161,0.0,0.0,96,0.00,,,0.00,Wunderground v.1.15,2013-03-08 12:30:00,
2013-03-08 04:36:00,29.4,28.4,29.74,SSE,160,0.0,0.0,96,0.00,,,0.00,Wunderground v.1.15,2013-03-08 12:36:00,
2013-03-08 04:41:00,29.4,28.4,29.74,SSE,160,0.0,0.0,96,0.00,,,0.00,Wunderground v.1.15,2013-03-08 12:41:00,
2013-03-08 04:47:00,29.3,28.3,29.75,SSE,160,0.0,0.0,96,0.00,,,0.00,Wunderground v.1.15,2013-03-08 12:47:00,
2013-03-08 04:53:00,29.1,28.1,29.75,SSE,160,0.0,0.0,96,0.00,,,0.00,Wunderground v.1.15,2013-03-08 12:53:00,
2013-03-08 04:58:00,29.0,28.0,29.75,SSE,160,0.0,0.0,96,0.00,,,0.00,Wunderground v.1.15,2013-03-08 12:58:00,
2013-03-08 05:04:00,28.7,27.7,29.75,SSE,160,0.0,0.0,96,0.00,,,0.00,Wunderground v.1.15,2013-03-08 13:04:00,
2013-03-08 05:10:00,28.5,27.5,29.75,SE,135,0.0,0.0,96,0.00,,,0.00,Wunderground v.1.15,2013-03-08 13:10:00,
2013-03-08 05:16:00,28.1,27.1,29.75,SE,144,0.0,0.0,96,0.00,,,0.00,Wunderground v.1.15,2013-03-08 13:16:00,
2013-03-08 05:21:00,27.8,26.8,29.75,SE,144,0.0,0.0,96,0.00,,,0.00,Wunderground v.1.15,2013-03-08 13:21:00,
2013-03-08 05:27:00,27.5,26.5,29.75,SE,144,0.0,0.0,96,0.00,,,0.00,Wunderground v.1.15,2013-03-08 13:27:00,
2013-03-08 05:32:00,27.2,26.2,29.77,SE,145,0.0,0.0,96,0.00,,,0.00,Wunderground v.1.15,2013-03-08 13:32:00,
2013-03-08 05:38:00,26.9,25.9,29.77,SE,140,0.0,0.0,96,0.00,,,0.00,Wunderground v.1.15,2013-03-08 13:38:00,
2013-03-08 05:44:00,26.4,25.4,29.79,SW,234,0.0,0.0,96,0.00,,,0.00,Wunderground v.1.15,2013-03-08 13:44:00,
2013-03-08 05:50:00,25.7,24.7,29.79,West,263,1.0,2.0,96,0.00,,,0.00,Wunderground v.1.15,2013-03-08 13:50:00,
2013-03-08 05:55:00,25.6,24.6,29.79,NW,318,3.0,5.0,96,0.00,,,0.00,Wunderground v.1.15,2013-03-08 13:55:00,
2013-03-08 06:01:00,25.3,24.3,29.79,NW,304,4.0,4.0,96,0.00,,,0.00,Wunderground v.1.15,2013-03-08 14:01:00,
2013-03-08 06:06:00,25.1,24.1,29.79,WSW,240,4.0,6.0,96,0.00,,,0.00,Wunderground v.1.15,2013-03-08 14:06:00,
2013-03-08 06:12:00,24.8,23.8,29.79,SSW,213,4.0,4.0,96,0.00,,,0.00,Wunderground v.1.15,2013-03-08 14:12:00,
2013-03-08 06:18:00,24.7,23.7,29.80,WNW,300,2.0,4.0,96,0.00,,,0.00,Wunderground v.1.15,2013-03-08 14:18:00,
2013-03-08 06:23:00,24.7,23.7,29.80,North,355,2.0,3.0,96,0.00,,,0.00,Wunderground v.1.15,2013-03-08 14:23:00,
2013-03-08 06:29:00,24.7,23.7,29.81,NNW,342,0.0,3.0,96,0.00,,,0.00,Wunderground v.1.15,2013-03-08 14:29:00,
2013-03-08 06:34:00,24.7,23.7,29.81,NW,304,0.0,2.0,96,0.00,,,0.00,Wunderground v.1.15,2013-03-08 14:34:00,
2013-03-08 06:40:00,24.7,23.7,29.81,NW,304,0.0,0.0,96,0.00,,,0.00,Wunderground v.1.15,2013-03-08 14:40:00,
2013-03-08 06:46:00,24.5,23.5,29.81,South,172,0.0,2.0,96,0.00,,,0.00,Wunderground v.1.15,2013-03-08 14:46:00,
2013-03-08 06:52:00,24.4,23.4,29.81,South,172,0.0,1.0,96,0.00,,,0.00,Wunderground v.1.15,2013-03-08 14:52:00,
2013-03-08 06:57:00,24.2,23.2,29.81,South,172,0.0,1.0,96,0.00,,,0.00,Wunderground v.1.15,2013-03-08 14:57:00,
2013-03-08 07:03:00,24.2,23.2,29.80,South,172,0.0,11.0,96,0.00,,,0.00,Wunderground v.1.15,2013-03-08 15:03:00,
2013-03-08 07:08:00,24.4,23.4,29.80,North,355,2.0,11.0,96,0.00,,,0.00,Wunderground v.1.15,2013-03-08 15:08:00,
2013-03-08 07:13:00,24.5,23.5,29.80,North,355,2.0,2.0,96,0.00,,,0.00,Wunderground v.1.15,2013-03-08 15:13:00,
2013-03-08 07:19:00,24.7,23.7,29.80,North,355,0.0,2.0,96,0.00,,,0.00,Wunderground v.1.15,2013-03-08 15:19:00,
2013-03-08 07:25:00,25.0,24.0,29.80,North,355,0.0,0.0,96,0.00,,,0.00,Wunderground v.1.15,2013-03-08 15:25:00,
2013-03-08 07:30:00,25.1,24.1,29.79,North,355,0.0,0.0,96,0.00,,,0.00,Wunderground v.1.15,2013-03-08 15:30:00,
2013-03-08 07:36:00,25.4,24.7,29.79,North,355,0.0,0.0,97,0.00,,,0.00,Wunderground v.1.15,2013-03-08 15:36:00,
2013-03-08 07:41:00,25.4,24.4,29.79,SW,227,0.0,2.0,96,0.00,,,0.00,Wunderground v.1.15,2013-03-08 15:41:00,
2013-03-08 07:46:00,25.4,24.4,29.79,SW,227,0.0,2.0,96,0.00,,,0.00,Wunderground v.1.15,2013-03-08 15:46:00,
2013-03-08 07:52:00,25.6,24.9,29.79,SW,225,0.0,2.0,97,0.00,,,0.00,Wunderground v.1.15,2013-03-08 15:52:00,
2013-03-08 07:58:00,25.7,25.0,29.79,SW,225,0.0,2.0,97,0.00,,,0.00,Wunderground v.1.15,2013-03-08 15:58:00,
2013-03-08 08:04:00,26.0,25.3,29.80,SW,222,0.0,12.0,97,0.00,,,0.00,Wunderground v.1.15,2013-03-08 16:04:00,
2013-03-08 08:10:00,26.1,25.4,29.80,SW,222,1.0,1.0,97,0.00,,,0.00,Wunderground v.1.15,2013-03-08 16:10:00,
2013-03-08 08:16:00,26.4,25.7,29.80,SSW,203,0.0,2.0,97,0.00,,,0.00,Wunderground v.1.15,2013-03-08 16:16:00,
2013-03-08 08:22:00,26.6,25.9,29.80,WSW,252,1.0,1.0,97,0.00,,,0.00,Wunderground v.1.15,2013-03-08 16:22:00,
2013-03-08 08:27:00,26.4,25.7,29.80,SW,220,1.0,5.0,97,0.00,,,0.00,Wunderground v.1.15,2013-03-08 16:27:00,
2013-03-08 08:33:00,26.1,25.4,29.81,WNW,293,2.0,6.0,97,0.00,,,0.00,Wunderground v.1.15,2013-03-08 16:33:00,
2013-03-08 08:39:00,26.0,25.3,29.81,NW,323,2.0,6.0,97,0.00,,,0.00,Wunderground v.1.15,2013-03-08 16:39:00,
2013-03-08 08:45:00,26.0,25.3,29.81,West,259,2.0,5.0,97,0.00,,,0.00,Wunderground v.1.15,2013-03-08 16:45:00,
2013-03-08 08:51:00,26.1,25.4,29.81,West,261,1.0,3.0,97,0.00,,,0.00,Wunderground v.1.15,2013-03-08 16:51:00,
2013-03-08 08:57:00,25.8,25.1,29.81,NNW,348,1.0,3.0,97,0.00,,,0.00,Wunderground v.1.15,2013-03-08 16:57:00,
2013-03-08 09:03:00,25.8,25.1,29.81,NW,304,1.0,9.0,97,0.00,,,0.00,Wunderground v.1.15,2013-03-08 17:03:00,
2013-03-08 09:09:00,26.0,25.3,29.81,SSW,213,1.0,9.0,97,0.00,,,0.00,Wunderground v.1.15,2013-03-08 17:09:00,
2013-03-08 09:14:00,25.8,25.1,29.82,West,279,1.0,1.0,97,0.00,,,0.00,Wunderground v.1.15,2013-03-08 17:14:00,
2013-03-08 09:19:00,25.4,24.4,29.82,WSW,241,1.0,4.0,96,0.00,,,0.00,Wunderground v.1.15,2013-03-08 17:19:00,
2013-03-08 09:25:00,25.3,24.3,29.82,WSW,250,1.0,1.0,96,0.00,,,0.00,Wunderground v.1.15,2013-03-08 17:25:00,
2013-03-08 09:31:00,25.6,24.9,29.83,WSW,250,0.0,1.0,97,0.00,,,0.00,Wunderground v.1.15,2013-03-08 17:31:00,
2013-03-08 09:37:00,25.7,25.0,29.83,WSW,254,0.0,3.0,97,0.00,,,0.00,Wunderground v.1.15,2013-03-08 17:37:00,
2013-03-08 09:42:00,25.3,24.3,29.83,North,355,1.0,1.0,96,0.00,,,0.00,Wunderground v.1.15,2013-03-08 17:42:00,
2013-03-08 09:48:00,25.0,24.0,29.84,North,355,1.0,1.0,96,0.00,,,0.00,Wunderground v.1.15,2013-03-08 17:48:00,
2013-03-08 09:53:00,25.0,24.0,29.84,SSE,163,0.0,3.0,96,0.00,,,0.00,Wunderground v.1.15,2013-03-08 17:53:00,
2013-03-08 09:59:00,25.3,24.3,29.84,SSE,157,1.0,5.0,96,0.00,,,0.00,Wunderground v.1.15,2013-03-08 17:59:00,
2013-03-08 10:04:00,26.0,25.3,29.84,WSW,252,1.0,10.0,97,0.00,,,0.00,Wunderground v.1.15,2013-03-08 18:04:00,
2013-03-08 10:10:00,26.1,25.4,29.84,SSE,155,1.0,2.0,97,0.00,,,0.00,Wunderground v.1.15,2013-03-08 18:10:00,
2013-03-08 10:18:00,26.0,25.0,29.83,SSE,157,1.0,7.0,96,0.00,,,0.00,Wunderground v.1.15,2013-03-08 18:18:00,
2013-03-08 10:24:00,25.8,24.8,29.83,NNW,344,2.0,6.0,96,0.00,,,0.00,Wunderground v.1.15,2013-03-08 18:24:00,
2013-03-08 10:30:00,25.6,24.6,29.84,NNW,344,2.0,2.0,96,0.00,,,0.00,Wunderground v.1.15,2013-03-08 18:30:00,
2013-03-08 10:36:00,25.6,24.6,29.84,SW,226,0.0,2.0,96,0.00,,,0.00,Wunderground v.1.15,2013-03-08 18:36:00,
2013-03-08 10:41:00,25.4,24.4,29.84,WSW,251,1.0,1.0,96,0.00,,,0.00,Wunderground v.1.15,2013-03-08 18:41:00,
2013-03-08 10:46:00,25.4,24.4,29.84,WSW,250,1.0,3.0,96,0.00,,,0.00,Wunderground v.1.15,2013-03-08 18:46:00,
2013-03-08 10:52:00,25.3,24.3,29.84,WNW,300,1.0,3.0,96,0.00,,,0.00,Wunderground v.1.15,2013-03-08 18:52:00,
2013-03-08 10:57:00,25.0,24.0,29.84,NW,313,2.0,6.0,96,0.00,,,0.00,Wunderground v.1.15,2013-03-08 18:57:00,
2013-03-08 11:03:00,24.8,23.8,29.85,NNW,348,3.0,7.0,96,0.00,,,0.00,Wunderground v.1.15,2013-03-08 19:03:00,
2013-03-08 11:09:00,25.0,24.0,29.85,NNW,329,2.0,7.0,96,0.00,,,0.00,Wunderground v.1.15,2013-03-08 19:09:00,
2013-03-08 11:14:00,25.4,24.7,29.86,South,188,1.0,2.0,97,0.00,,,0.00,Wunderground v.1.15,2013-03-08 19:14:00,
2013-03-08 11:20:00,25.8,25.1,29.86,South,189,0.0,0.0,97,0.00,,,0.00,Wunderground v.1.15,2013-03-08 19:20:00,
2013-03-08 11:25:00,25.8,25.1,29.86,West,271,0.0,4.0,97,0.00,,,0.00,Wunderground v.1.15,2013-03-08 19:25:00,
2013-03-08 11:31:00,25.7,24.7,29.86,West,277,1.0,1.0,96,0.00,,,0.00,Wunderground v.1.15,2013-03-08 19:31:00,
2013-03-08 11:37:00,25.8,25.1,29.86,West,273,1.0,5.0,97,0.00,,,0.00,Wunderground v.1.15,2013-03-08 19:37:00,
2013-03-08 11:43:00,26.0,25.3,29.86,West,273,1.0,1.0,97,0.00,,,0.00,Wunderground v.1.15,2013-03-08 19:43:00,
2013-03-08 11:49:00,26.0,25.3,29.85,West,273,0.0,1.0,97,0.00,,,0.00,Wunderground v.1.15,2013-03-08 19:49:00,
2013-03-08 11:54:00,25.8,24.8,29.85,West,275,0.0,1.0,96,0.00,,,0.00,Wunderground v.1.15,2013-03-08 19:54:00,
2013-03-08 12:00:00,25.7,24.7,29.85,SSW,195,0.0,0.0,96,0.00,,,0.00,Wunderground v.1.15,2013-03-08 20:00:00,
2013-03-08 12:06:00,25.7,24.7,29.85,SSW,195,0.0,9.0,96,0.00,,,0.00,Wunderground v.1.15,2013-03-08 20:06:00,
2013-03-08 12:12:00,25.7,24.7,29.85,SSW,195,0.0,0.0,96,0.00,,,0.00,Wunderground v.1.15,2013-03-08 20:12:00,
2013-03-08 12:17:00,25.6,24.6,29.85,SE,144,0.0,2.0,96,0.00,,,0.00,Wunderground v.1.15,2013-03-08 20:17:00,
2013-03-08 12:23:00,25.7,25.0,29.85,SSE,147,0.0,0.0,97,0.00,,,0.00,Wunderground v.1.15,2013-03-08 20:23:00,
2013-03-08 12:29:00,25.7,24.7,29.85,SSE,163,1.0,4.0,96,0.00,,,0.00,Wunderground v.1.15,2013-03-08 20:29:00,
2013-03-08 12:35:00,26.6,25.9,29.85,SSE,163,0.0,1.0,97,0.00,,,0.00,Wunderground v.1.15,2013-03-08 20:35:00,
2013-03-08 12:41:00,27.6,26.9,29.85,SSE,163,0.0,3.0,97,0.00,,,0.00,Wunderground v.1.15,2013-03-08 20:41:00,
2013-03-08 12:46:00,27.6,26.9,29.85,SE,132,1.0,3.0,97,0.00,,,0.00,Wunderground v.1.15,2013-03-08 20:46:00,
2013-03-08 12:52:00,27.3,26.6,29.85,SW,235,1.0,2.0,97,0.00,,,0.00,Wunderground v.1.15,2013-03-08 20:52:00,
2013-03-08 12:57:00,27.0,26.3,29.85,WSW,244,1.0,4.0,97,0.00,,,0.00,Wunderground v.1.15,2013-03-08 20:57:00,
2013-03-08 13:02:00,26.9,26.2,29.84,South,174,1.0,7.0,97,0.00,,,0.00,Wunderground v.1.15,2013-03-08 21:02:00,
2013-03-08 13:07:00,26.7,26.0,29.84,SE,142,0.0,7.0,97,0.00,,,0.00,Wunderground v.1.15,2013-03-08 21:07:00,
2013-03-08 13:13:00,26.4,25.4,29.84,West,261,0.0,0.0,96,0.00,,,0.00,Wunderground v.1.15,2013-03-08 21:13:00,
2013-03-08 13:19:00,26.3,25.6,29.83,SSW,202,0.0,3.0,97,0.00,,,0.00,Wunderground v.1.15,2013-03-08 21:19:00,
2013-03-08 13:24:00,26.0,25.3,29.83,NNE,16,1.0,3.0,97,0.00,,,0.00,Wunderground v.1.15,2013-03-08 21:24:00,
2013-03-08 13:29:00,25.7,24.7,29.84,WNW,286,2.0,4.0,96,0.00,,,0.00,Wunderground v.1.15,2013-03-08 21:29:00,
2013-03-08 13:35:00,25.4,24.4,29.84,NNW,344,2.0,4.0,96,0.00,,,0.00,Wunderground v.1.15,2013-03-08 21:35:00,
2013-03-08 13:41:00,25.4,24.4,29.84,NW,307,1.0,1.0,96,0.00,,,0.00,Wunderground v.1.15,2013-03-08 21:41:00,
2013-03-08 13:47:00,25.4,24.7,29.84,WNW,286,1.0,4.0,97,0.00,,,0.00,Wunderground v.1.15,2013-03-08 21:47:00,
2013-03-08 13:52:00,25.6,24.9,29.84,WNW,291,1.0,3.0,97,0.00,,,0.00,Wunderground v.1.15,2013-03-08 21:52:00,
2013-03-08 13:58:00,25.6,24.9,29.84,West,279,2.0,6.0,97,0.00,,,0.00,Wunderground v.1.15,2013-03-08 21:58:00,
2013-03-08 14:04:00,25.4,24.4,29.85,NW,306,2.0,9.0,96,0.00,,,0.00,Wunderground v.1.15,2013-03-08 22:04:00,
2013-03-08 14:10:00,25.3,24.3,29.85,NNW,337,2.0,2.0,96,0.00,,,0.00,Wunderground v.1.15,2013-03-08 22:10:00,
2013-03-08 14:15:00,25.1,24.1,29.85,NNW,345,2.0,4.0,96,0.00,,,0.00,Wunderground v.1.15,2013-03-08 22:15:00,
2013-03-08 14:20:00,25.1,24.1,29.85,West,277,2.0,2.0,96,0.00,,,0.00,Wunderground v.1.15,2013-03-08 22:20:00,
2013-03-08 14:26:00,25.1,24.1,29.85,WNW,302,2.0,2.0,96,0.00,,,0.00,Wunderground v.1.15,2013-03-08 22:26:00,
2013-03-08 14:31:00,25.6,24.9,29.86,North,350,2.0,2.0,97,0.00,,,0.00,Wunderground v.1.15,2013-03-08 22:31:00,
2013-03-08 14:37:00,26.0,25.3,29.86,West,281,2.0,4.0,97,0.00,,,0.00,Wunderground v.1.15,2013-03-08 22:37:00,
2013-03-08 14:43:00,26.0,25.3,29.86,NW,309,2.0,6.0,97,0.00,,,0.00,Wunderground v.1.15,2013-03-08 22:43:00,
2013-03-08 14:48:00,26.0,25.3,29.86,North,355,2.0,6.0,97,0.00,,,0.00,Wunderground v.1.15,2013-03-08 22:48:00,
2013-03-08 14:53:00,25.8,25.1,29.86,WNW,290,2.0,2.0,97,0.00,,,0.00,Wunderground v.1.15,2013-03-08 22:53:00,
2013-03-08 14:59:00,25.8,25.1,29.86,NNW,331,1.0,2.0,97,0.00,,,0.00,Wunderground v.1.15,2013-03-08 22:59:00,
2013-03-08 15:04:00,25.7,25.0,29.86,WNW,303,1.0,8.0,97,0.00,,,0.00,Wunderground v.1.15,2013-03-08 23:04:00,
2013-03-08 15:10:00,25.6,24.9,29.86,West,279,2.0,2.0,97,0.00,,,0.00,Wunderground v.1.15,2013-03-08 23:10:00,
2013-03-08 15:16:00,25.7,25.0,29.86,NW,325,2.0,3.0,97,0.00,,,0.00,Wunderground v.1.15,2013-03-08 23:16:00,
2013-03-08 15:21:00,25.8,25.1,29.86,North,355,2.0,3.0,97,0.00,,,0.00,Wunderground v.1.15,2013-03-08 23:21:00,
2013-03-08 15:27:00,25.8,25.1,29.86,WNW,296,2.0,3.0,97,0.00,,,0.00,Wunderground v.1.15,2013-03-08 23:27:00,
2013-03-08 15:32:00,25.8,25.1,29.87,North,350,2.0,4.0,97,0.00,,,0.00,Wunderground v.1.15,2013-03-08 23:32:00,
2013-03-08 15:37:00,25.7,25.0,29.87,West,274,3.0,5.0,97,0.00,,,0.00,Wunderground v.1.15,2013-03-08 23:37:00,
2013-03-08 15:43:00,25.6,24.9,29.87,WNW,286,2.0,5.0,97,0.00,,,0.00,Wunderground v.1.15,2013-03-08 23:43:00,
2013-03-08 15:48:00,25.6,24.9,29.87,North,350,2.0,5.0,97,0.00,,,0.00,Wunderground v.1.15,2013-03-08 23:48:00,
2013-03-08 15:54:00,25.6,24.9,29.87,North,355,3.0,4.0,97,0.00,,,0.00,Wunderground v.1.15,2013-03-08 23:54:00,
2013-03-08 15:59:00,25.6,24.9,29.87,WNW,290,2.0,4.0,97,0.00,,,0.00,Wunderground v.1.15,2013-03-08 23:59:00,
2013-03-08 16:04:00,25.6,24.9,29.87,NNW,344,2.0,8.0,97,0.00,,,0.00,Wunderground v.1.15,2013-03-09 00:04:00,
2013-03-08 16:10:00,25.6,24.9,29.87,NNW,336,2.0,2.0,97,0.00,,,0.00,Wunderground v.1.15,2013-03-09 00:10:00,
2013-03-08 16:15:00,25.6,24.9,29.88,NNW,342,1.0,3.0,97,0.00,,,0.00,Wunderground v.1.15,2013-03-09 00:15:00,
2013-03-08 16:21:00,25.3,24.3,29.88,North,355,2.0,4.0,96,0.00,,,0.00,Wunderground v.1.15,2013-03-09 00:21:00,
2013-03-08 16:27:00,25.1,24.1,29.88,NNW,348,2.0,4.0,96,0.00,,,0.00,Wunderground v.1.15,2013-03-09 00:27:00,
2013-03-08 16:33:00,25.1,24.4,29.88,NNW,342,1.0,6.0,97,0.00,,,0.00,Wunderground v.1.15,2013-03-09 00:33:00,
2013-03-08 16:39:00,25.1,24.4,29.88,WNW,293,1.0,6.0,97,0.00,,,0.00,Wunderground v.1.15,2013-03-09 00:39:00,
2013-03-08 16:45:00,25.3,24.6,29.89,NNW,340,1.0,5.0,97,0.00,,,0.00,Wunderground v.1.15,2013-03-09 00:45:00,
2013-03-08 16:51:00,25.1,24.1,29.89,NNW,329,2.0,3.0,96,0.00,,,0.00,Wunderground v.1.15,2013-03-09 00:51:00,
2013-03-08 16:57:00,25.1,24.1,29.89,NNW,339,1.0,3.0,96,0.00,,,0.00,Wunderground v.1.15,2013-03-09 00:57:00,
2013-03-08 17:02:00,25.0,24.0,29.89,NW,306,1.0,7.0,96,0.00,,,0.00,Wunderground v.1.15,2013-03-09 01:02:00,
2013-03-08 17:08:00,24.8,23.8,29.89,WNW,300,0.0,7.0,96,0.00,,,0.00,Wunderground v.1.15,2013-03-09 01:08:00,
2013-03-08 17:13:00,24.8,23.8,29.89,WNW,298,0.0,1.0,96,0.00,,,0.00,Wunderground v.1.15,2013-03-09 01:13:00,
2013-03-08 17:18:00,24.8,23.8,29.90,WNW,298,0.0,1.0,96,0.00,,,0.00,Wunderground v.1.15,2013-03-09 01:18:00,
2013-03-08 17:24:00,24.8,23.8,29.90,WNW,300,0.0,1.0,96,0.00,,,0.00,Wunderground v.1.15,2013-03-09 01:24:00,
2013-03-08 17:29:00,24.7,23.7,29.91,NNW,333,1.0,1.0,96,0.00,,,0.00,Wunderground v.1.15,2013-03-09 01:29:00,
2013-03-08 17:35:00,24.7,23.7,29.91,NNW,334,0.0,1.0,96,0.00,,,0.00,Wunderground v.1.15,2013-03-09 01:35:00,
2013-03-08 17:41:00,24.7,23.7,29.91,NNW,336,0.0,3.0,96,0.00,,,0.00,Wunderground v.1.15,2013-03-09 01:41:00,
2013-03-08 17:46:00,24.7,23.7,29.91,NNW,336,1.0,3.0,96,0.00,,,0.00,Wunderground v.1.15,2013-03-09 01:46:00,
2013-03-08 17:52:00,24.7,23.7,29.91,NNW,339,2.0,3.0,96,0.00,,,0.00,Wunderground v.1.15,2013-03-09 01:52:00,
2013-03-08 17:58:00,24.7,23.7,29.91,NNW,339,2.0,3.0,96,0.00,,,0.00,Wunderground v.1.15,2013-03-09 01:58:00,
2013-03-08 18:03:00,24.7,23.7,29.92,NNW,338,1.0,6.0,96,0.00,,,0.00,Wunderground v.1.15,2013-03-09 02:03:00,
2013-03-08 18:08:00,24.8,23.8,29.92,NNW,339,0.0,6.0,96,0.00,,,0.00,Wunderground v.1.15,2013-03-09 02:08:00,
2013-03-08 18:13:00,24.8,23.8,29.92,NNW,339,0.0,0.0,96,0.00,,,0.00,Wunderground v.1.15,2013-03-09 02:13:00,
2013-03-08 18:19:00,25.0,24.0,29.93,NNW,348,1.0,5.0,96,0.00,,,0.00,Wunderground v.1.15,2013-03-09 02:19:00,
2013-03-08 18:25:00,25.0,24.3,29.93,NNW,347,1.0,1.0,97,0.00,,,0.00,Wunderground v.1.15,2013-03-09 02:25:00,
2013-03-08 18:31:00,25.0,24.3,29.94,NNW,346,1.0,3.0,97,0.00,,,0.00,Wunderground v.1.15,2013-03-09 02:31:00,
2013-03-08 18:37:00,25.1,24.4,29.94,NNW,346,2.0,3.0,97,0.00,,,0.00,Wunderground v.1.15,2013-03-09 02:37:00,
2013-03-08 18:42:00,25.1,24.4,29.94,NNW,344,1.0,2.0,97,0.00,,,0.00,Wunderground v.1.15,2013-03-09 02:42:00,
2013-03-08 18:48:00,25.3,24.6,29.95,NNW,329,2.0,4.0,97,0.00,,,0.00,Wunderground v.1.15,2013-03-09 02:48:00,
2013-03-08 18:54:00,25.3,24.6,29.95,North,355,2.0,4.0,97,0.00,,,0.00,Wunderground v.1.15,2013-03-09 02:54:00,
2013-03-08 19:00:00,25.4,24.7,29.96,West,274,2.0,2.0,97,0.00,,,0.00,Wunderground v.1.15,2013-03-09 03:00:00,
2013-03-08 19:06:00,25.6,24.9,29.96,West,280,0.0,5.0,97,0.00,,,0.00,Wunderground v.1.15,2013-03-09 03:06:00,
2013-03-08 19:12:00,25.7,25.0,29.96,NNW,347,1.0,3.0,97,0.00,,,0.00,Wunderground v.1.15,2013-03-09 03:12:00,
2013-03-08 19:18:00,25.8,25.1,29.97,NNW,347,1.0,3.0,97,0.00,,,0.00,Wunderground v.1.15,2013-03-09 03:18:00,
2013-03-08 19:24:00,26.0,25.3,29.97,NNW,347,0.0,1.0,97,0.00,,,0.00,Wunderground v.1.15,2013-03-09 03:24:00,
2013-03-08 19:29:00,26.0,25.3,29.98,NNW,346,1.0,3.0,97,0.00,,,0.00,Wunderground v.1.15,2013-03-09 03:29:00,
2013-03-08 19:35:00,26.1,25.4,29.98,NNW,346,1.0,2.0,97,0.00,,,0.00,Wunderground v.1.15,2013-03-09 03:35:00,
2013-03-08 19:40:00,26.1,25.4,29.98,NNW,344,1.0,1.0,97,0.00,,,0.00,Wunderground v.1.15,2013-03-09 03:40:00,
2013-03-08 19:46:00,26.3,25.6,29.98,North,355,1.0,3.0,97,0.00,,,0.00,Wunderground v.1.15,2013-03-09 03:46:00,
2013-03-08 19:52:00,26.3,25.6,29.98,NW,325,1.0,3.0,97,0.00,,,0.00,Wunderground v.1.15,2013-03-09 03:52:00,
2013-03-08 19:57:00,26.4,25.7,29.98,NW,325,2.0,6.0,97,0.00,,,0.00,Wunderground v.1.15,2013-03-09 03:57:00,
2013-03-08 20:03:00,26.4,25.7,29.99,NNW,331,1.0,6.0,97,0.00,,,0.00,Wunderground v.1.15,2013-03-09 04:03:00,
2013-03-08 20:09:00,26.6,25.9,29.99,NNW,342,1.0,6.0,97,0.00,,,0.00,Wunderground v.1.15,2013-03-09 04:09:00,
2013-03-08 20:15:00,26.4,25.7,30.00,WSW,249,1.0,3.0,97,0.00,,,0.00,Wunderground v.1.15,2013-03-09 04:15:00,
2013-03-08 20:20:00,26.4,25.7,30.00,WNW,298,2.0,4.0,97,0.00,,,0.00,Wunderground v.1.15,2013-03-09 04:20:00,
2013-03-08 20:26:00,26.3,25.6,30.00,WNW,287,3.0,4.0,97,0.00,,,0.00,Wunderground v.1.15,2013-03-09 04:26:00,
2013-03-08 20:31:00,26.3,25.6,30.01,West,265,2.0,5.0,97,0.00,,,0.00,Wunderground v.1.15,2013-03-09 04:31:00,
2013-03-08 20:36:00,26.3,25.6,30.01,NNW,342,2.0,5.0,97,0.00,,,0.00,Wunderground v.1.15,2013-03-09 04:36:00,
2013-03-08 20:42:00,26.3,25.6,30.01,West,277,2.0,3.0,97,0.00,,,0.00,Wunderground v.1.15,2013-03-09 04:42:00,
2013-03-08 20:47:00,26.3,25.6,30.02,NW,306,2.0,5.0,97,0.00,,,0.00,Wunderground v.1.15,2013-03-09 04:47:00,
2013-03-08 20:53:00,26.4,25.7,30.02,NW,319,2.0,4.0,97,0.00,,,0.00,Wunderground v.1.15,2013-03-09 04:53:00,
2013-03-08 20:59:00,26.4,25.7,30.03,NW,320,1.0,4.0,97,0.00,,,0.00,Wunderground v.1.15,2013-03-09 04:59:00,
2013-03-08 21:00:00,26.4,25.7,30.03,NW,325,1.0,1.0,97,0.00,,,0.00,Wunderground v.1.15,2013-03-09 05:00:00,
2013-03-08 21:01:00,26.4,25.7,30.03,NW,325,0.0,7.0,97,0.00,,,0.00,Wunderground v.1.15,2013-03-09 05:01:00,
2013-03-08 21:03:00,26.4,25.7,30.03,West,275,0.0,7.0,97,0.00,,,0.00,Wunderground v.1.15,2013-03-09 05:03:00,
2013-03-08 21:07:00,26.6,25.9,30.03,West,275,0.0,7.0,97,0.00,,,0.00,Wunderground v.1.15,2013-03-09 05:07:00,
2013-03-08 21:12:00,26.6,25.9,30.03,West,275,0.0,0.0,97,0.00,,,0.00,Wunderground v.1.15,2013-03-09 05:12:00,
2013-03-08 21:18:00,26.6,25.9,30.04,SW,226,0.0,0.0,97,0.00,,,0.00,Wunderground v.1.15,2013-03-09 05:18:00,
2013-03-08 21:23:00,26.7,26.0,30.04,NW,305,0.0,0.0,97,0.00,,,0.00,Wunderground v.1.15,2013-03-09 05:23:00,
2013-03-08 21:29:00,26.7,26.0,30.04,NW,312,0.0,2.0,97,0.00,,,0.00,Wunderground v.1.15,2013-03-09 05:29:00,
2013-03-08 21:35:00,26.6,25.9,30.04,NW,309,0.0,0.0,97,0.00,,,0.00,Wunderground v.1.15,2013-03-09 05:35:00,
2013-03-08 21:40:00,26.6,25.9,30.04,NW,311,0.0,0.0,97,0.00,,,0.00,Wunderground v.1.15,2013-03-09 05:40:00,
2013-03-08 21:46:00,26.6,25.9,30.04,West,276,0.0,1.0,97,0.00,,,0.00,Wunderground v.1.15,2013-03-09 05:46:00,
2013-03-08 21:52:00,26.6,25.9,30.04,NNW,345,0.0,0.0,97,0.00,,,0.00,Wunderground v.1.15,2013-03-09 05:52:00,
2013-03-08 21:57:00,26.6,25.9,30.04,NW,324,0.0,0.0,97,0.00,,,0.00,Wunderground v.1.15,2013-03-09 05:57:00,
2013-03-08 22:03:00,26.6,25.9,30.05,NW,325,0.0,11.0,97,0.00,,,0.00,Wunderground v.1.15,2013-03-09 06:03:00,
2013-03-08 22:09:00,26.6,25.9,30.05,NW,324,0.0,11.0,97,0.00,,,0.00,Wunderground v.1.15,2013-03-09 06:09:00,
2013-03-08 22:15:00,26.7,26.0,30.05,NW,323,0.0,0.0,97,0.00,,,0.00,Wunderground v.1.15,2013-03-09 06:15:00,
2013-03-08 22:21:00,26.7,26.0,30.05,WNW,300,0.0,0.0,97,0.00,,,0.00,Wunderground v.1.15,2013-03-09 06:21:00,
2013-03-08 22:26:00,26.7,26.0,30.05,NW,304,0.0,0.0,97,0.00,,,0.00,Wunderground v.1.15,2013-03-09 06:26:00,
2013-03-08 22:32:00,26.7,26.0,30.05,NW,311,0.0,0.0,97,0.00,,,0.00,Wunderground v.1.15,2013-03-09 06:32:00,
2013-03-08 22:38:00,26.9,26.2,30.05,NNW,346,0.0,0.0,97,0.00,,,0.00,Wunderground v.1.15,2013-03-09 06:38:00,
2013-03-08 22:43:00,26.9,26.2,30.05,NNW,342,0.0,0.0,97,0.00,,,0.00,Wunderground v.1.15,2013-03-09 06:43:00,
2013-03-08 22:49:00,26.9,26.2,30.05,NW,315,0.0,0.0,97,0.00,,,0.00,Wunderground v.1.15,2013-03-09 06:49:00,
2013-03-08 22:55:00,27.0,26.3,30.05,NNE,12,0.0,0.0,97,0.00,,,0.00,Wunderground v.1.15,2013-03-09 06:55:00,
2013-03-08 23:00:00,27.0,26.3,30.05,WNW,283,0.0,0.0,97,0.00,,,0.00,Wunderground v.1.15,2013-03-09 07:00:00,
2013-03-08 23:06:00,27.0,26.3,30.05,WNW,292,0.0,3.0,97,0.00,,,0.00,Wunderground v.1.15,2013-03-09 07:06:00,
2013-03-08 23:11:00,27.0,26.3,30.05,WNW,295,0.0,0.0,97,0.00,,,0.00,Wunderground v.1.15,2013-03-09 07:11:00,
2013-03-08 23:16:00,27.2,26.5,30.05,WNW,296,0.0,0.0,97,0.00,,,0.00,Wunderground v.1.15,2013-03-09 07:16:00,
2013-03-08 23:22:00,27.2,26.5,30.05,WNW,296,0.0,0.0,97,0.00,,,0.00,Wunderground v.1.15,2013-03-09 07:22:00,
2013-03-08 23:27:00,27.2,26.5,30.05,WNW,296,0.0,0.0,97,0.00,,,0.00,Wunderground v.1.15,2013-03-09 07:27:00,
2013-03-08 23:32:00,27.2,26.5,30.05,WNW,296,0.0,0.0,97,0.00,,,0.00,Wunderground v.1.15,2013-03-09 07:32:00,
2013-03-08 23:37:00,27.3,26.6,30.05,WNW,296,0.0,0.0,97,0.00,,,0.00,Wunderground v.1.15,2013-03-09 07:37:00,
2013-03-08 23:43:00,27.3,26.6,30.05,WNW,296,0.0,0.0,97,0.00,,,0.00,Wunderground v.1.15,2013-03-09 07:43:00,
2013-03-08 23:49:00,27.3,26.6,30.04,WNW,296,0.0,0.0,97,0.00,,,0.00,Wunderground v.1.15,2013-03-09 07:49:00,
2013-03-08 23:54:00,27.3,26.6,30.04,WNW,296,0.0,0.0,97,0.00,,,0.00,Wunderground v.1.15,2013-03-09 07:54:00,